This is the latest recevied weather packets stored in our database for station/object KO6HRZ. If no packets are shown the sender has not sent any weather packets the latest 10 day(s).
| Time | Temp. | Humidity | Pressure | Rain* | Wind** | Luminosity | Snow |
|---|---|---|---|---|---|---|---|
| 1788103429 | 16.11° C | 80% | 1012.1 hPa | 0 mm | - | 64 W/m² | - |
| 1788102829 | 15.56° C | 81% | 1011.8 hPa | 0 mm | - | 45 W/m² | - |
| 1788102230 | 15.56° C | 82% | 1011.9 hPa | 0 mm | - | 42 W/m² | - |
| 1788101625 | 15.56° C | 82% | 1011.8 hPa | 0 mm | - | 39 W/m² | - |
| 1788101022 | 15° C | 82% | 1011.7 hPa | 0 mm | - | 36 W/m² | - |
| 1788100417 | 15° C | 82% | 1011.7 hPa | 0 mm | - | 33 W/m² | - |
| 1788099813 | 15° C | 82% | 1011.5 hPa | 0 mm | - | 29 W/m² | - |
| 1788099208 | 15° C | 81% | 1011.3 hPa | 0 mm | - | 25 W/m² | - |
| 1788098604 | 15° C | 81% | 1011.3 hPa | 0 mm | - | 20 W/m² | - |
| 1788098000 | 15° C | 80% | 1011.3 hPa | 0 mm | - | 14 W/m² | - |
| 1788097396 | 15° C | 79% | 1011.1 hPa | 0 mm | - | 8 W/m² | - |
| 1788096793 | 15° C | 78% | 1011.1 hPa | 0 mm | - | 3 W/m² | - |
| 1788096190 | 15° C | 78% | 1010.9 hPa | 0 mm | - | 1 W/m² | - |
| 1788095590 | 15° C | 78% | 1010.8 hPa | 0 mm | - | 0 W/m² | - |
| 1788094985 | 15° C | 77% | 1010.8 hPa | 0 mm | - | 0 W/m² | - |
| 1788094380 | 15° C | 76% | 1010.9 hPa | 0 mm | - | 0 W/m² | - |
| 1788093779 | 15° C | 76% | 1010.6 hPa | 0 mm | - | 0 W/m² | - |
| 1788093177 | 15° C | 76% | 1010.7 hPa | 0 mm | - | 0 W/m² | - |
| 1788092575 | 15.56° C | 76% | 1010.6 hPa | 0 mm | - | 0 W/m² | - |
| 1788091975 | 15° C | 77% | 1010.6 hPa | 0 mm | - | 0 W/m² | - |
| 1788091373 | 15° C | 78% | 1010.6 hPa | 0 mm | - | 0 W/m² | - |
| 1788090771 | 15° C | 76% | 1010.6 hPa | 0 mm | - | 0 W/m² | - |
| 1788090168 | 15° C | 75% | 1010.5 hPa | 0 mm | - | 0 W/m² | - |
| 1788089563 | 15.56° C | 74% | 1010.5 hPa | 0 mm | - | 0 W/m² | - |
| 1788088961 | 15.56° C | 74% | 1010.6 hPa | 0 mm | - | 0 W/m² | - |
* Rain latest hour (hover to see other rain measurements)
** Current wind speed in m/s (hover to see current wind gust speed)